Weather History for Bradshaw AFB, HI

Change the Weather History Date:

Tuesday, January 7, 2014

  Actual Average Record
Temperature  
Mean Temperature 50 °F -  
Max Temperature 64 °F 63 °F 69 °F (2002)
Min Temperature 35 °F 42 °F 33 °F (1998)
Degree Days  
Heating Degree Days 16    
Moisture  
Dew Point 31 °F    
Average Humidity 54    
Maximum Humidity 87    
Minimum Humidity 18    
Precipitation  
Precipitation 0.00 in - - ()
Sea Level Pressure  
Sea Level Pressure 30.26 in    
Wind  
Wind Speed 5 mph (SE)    
Max Wind Speed 10 mph    
Max Gust Speed 16 mph    
Visibility 12 miles    
Events      
Averages and records for this station are not official NWS values.
T = Trace of Precipitation, MM = Missing Value Source: NWS Daily Summary

Daily Weather History Graph

Daily Weather History Graph

Search for Another Location

Airport:

Trip Planner

Search our weather history database for the weather conditions in past years. The results will help you decide how hot, cold, wet, or windy it might be!

Date:

Astronomy

Jan. 07, 2014 Rise Set
Actual Time 6:58 AM HST 5:58 PM HST
Civil Twilight 6:34 AM HST 6:22 PM HST
Nautical Twilight 6:07 AM HST 6:49 PM HST
Astronomical Twilight 5:40 AM HST 7:16 PM HST
Moon 11:53 AM HST (1/7) No Moon Set
Length of Visible Light 11h 47m
Length of Day
11h 00m
Waxing Crescent, 47% of the Moon is Illuminated
Jan 7
Waxing Crescent
Jan 7
First Quarter
Jan 15
Full
Jan 23
Last Quarter
Jan 30
New

Hourly Weather History & Observations

Time (HST) Temp. Windchill Dew Point Humidity Pressure Visibility Wind Dir Wind Speed Gust Speed Precip Events Conditions
12:56 AM 40.1 °F 35.3 °F 25.2 °F 55% 30.25 in 12.0 mi ESE 6.9 mph - N/A   Clear
1:56 AM 39.6 °F - 22.8 °F 51% 30.24 in 12.0 mi East 2.3 mph - N/A   Clear
2:56 AM 37.9 °F 33.5 °F 25.0 °F 60% 30.24 in 12.0 mi ESE 5.8 mph - N/A   Clear
3:56 AM 36.3 °F 33.7 °F 27.3 °F 70% 30.24 in 12.0 mi East 3.5 mph - N/A   Clear
4:56 AM 35.4 °F - 25.2 °F 66% 30.25 in 12.0 mi East 2.3 mph - N/A   Clear
5:56 AM 35.8 °F 31.9 °F 26.6 °F 69% 30.25 in 12.0 mi ESE 4.6 mph - N/A   Clear
6:56 AM 36.7 °F 32.9 °F 21.2 °F 54% 30.27 in 12.0 mi ESE 4.6 mph - N/A   Clear
7:56 AM 45.0 °F - 25.0 °F 46% 30.29 in 12.0 mi ESE 2.3 mph - N/A   Clear
8:56 AM 52.0 °F - 17.8 °F 26% 30.32 in 12.0 mi SE 6.9 mph - N/A   Clear
9:56 AM 55.6 °F - 20.7 °F 26% 30.31 in 12.0 mi SE 10.4 mph 16.1 mph N/A   Clear
10:56 AM 60.8 °F - 17.2 °F 18% 30.31 in 12.0 mi WSW 2.3 mph - N/A   Clear
11:56 AM 62.1 °F - 19.2 °F 19% 30.29 in 12.0 mi West 5.8 mph - N/A   Clear
12:56 PM 63.0 °F - 25.9 °F 24% 30.25 in 12.0 mi SE 5.8 mph 16.1 mph N/A   Clear
1:56 PM 64.6 °F - 24.3 °F 22% 30.22 in 12.0 mi SW 6.9 mph 16.1 mph N/A   Clear
2:56 PM 62.8 °F - 36.0 °F 37% 30.22 in 12.0 mi West 8.1 mph - N/A   Clear
3:56 PM 59.5 °F - 45.3 °F 59% 30.24 in 12.0 mi SW 5.8 mph - N/A   Clear
4:56 PM 58.1 °F - 47.1 °F 67% 30.24 in 12.0 mi WSW 5.8 mph - N/A   Clear
5:41 PM 55.4 °F - 46.4 °F 72% 30.25 in 12.0 mi West 4.6 mph - N/A   Mostly Cloudy
5:56 PM 53.8 °F - 46.8 °F 77% 30.26 in 12.0 mi WSW 1.2 mph - N/A   Mostly Cloudy
6:11 PM 53.6 °F - 44.6 °F 72% 30.26 in 12.0 mi SE 5.8 mph - N/A   Scattered Clouds
6:56 PM 49.8 °F - 44.2 °F 81% 30.27 in 12.0 mi ESE 4.6 mph - N/A   Clear
7:56 PM 46.9 °F - 43.2 °F 87% 30.29 in 12.0 mi ESE 8.1 mph - N/A   Clear
8:56 PM 44.2 °F 41.8 °F 40.3 °F 86% 30.28 in 12.0 mi ESE 4.6 mph - N/A   Clear
9:56 PM 46.6 °F - 30.9 °F 54% 30.29 in 12.0 mi ESE 8.1 mph - N/A   Clear
10:56 PM 43.9 °F 41.3 °F 27.9 °F 53% 30.28 in 12.0 mi ESE 4.6 mph - N/A   Clear
11:56 PM 40.6 °F - 24.3 °F 52% 30.27 in 12.0 mi NNE 2.3 mph - N/A   Clear